sat.trackr.live / text

‹ back to catalog

STARLINK-5250

NORAD 54200 · 2022-141AV

PAYLOAD ACTIVE UNKNOWN

§ Identity

Operator
Country
US
Launch date
2022-10-28
Launch site
AFWTR
Launch vehicle
Mass (kg)
RCS (m²)

Purposes: comms

External: N2YO · Heavens-Above · Gunter

§ Orbital elements

Epoch: 2026-09-20T04:14:01.529376Z

Period
93.79 min
Inclination
53.1607°
Eccentricity
0.0001129
Mean motion
15.35404130 rev/d
Perigee alt
458.9 km
Apogee alt
460.5 km
Semi-major
6,837.9 km
B*
3.2466e-5
RAAN
189.5111°
Arg perigee
71.6846°
Mean anomaly
288.4280°
Rev number
21,551

§ Raw data

STARLINK-52501 54200U 22141AV  26263.17640659  .00000752  00000+0  32466-4 0  99962 54200  53.1607 189.5111 0001129  71.6846 288.4280 15.35404130215518

JSON: /api/v1/satellites/54200 · /tle

For live sub-satellite position, see the globe view (requires WebGL).

§ Visibility from observer

Set your observer location to see the next 7 days of passes ≥ 10°. The values pass through the URL so the page stays shareable.

No JS? Fill the form by hand. The geolocation button needs JavaScript.